Regional Weather Roundup
Issued by NWS

Home | Current Version | Previous Version | Graphics & Text | Print | Product List | Glossary On
Versions: 1 2 3 4 5 6 7 8 9 10 11 12 13 14 15 16 17 18 19 20 21 22 23 24 25 26 27 28 29 30 31 32 33 34 35 36 37 38 39 40 41 42 43 44 45 46 47 48 49 50
000
ASUS43 KTOP 310008
RWRKS

WEATHER ROUNDUP FOR KANSAS
NATIONAL WEATHER SERVICE GOODLAND KS
700 PM CDT SAT AUG 30 2014

NOTE:  "FAIR" INDICATES FEW OR NO CLOUDS BELOW 12,000 FEET WITH NO
SIGNIFICANT WEATHER AND/OR OBSTRUCTIONS TO VISIBILITY.

KSZ001>006-013>018-027>032-041>047-310100-
NORTHWEST KANSAS

CITY           SKY/WX    TMP DP  RH WIND       PRES   REMARKS
GOODLAND       SUNNY     88  46  23 S9        29.86F
6HR MIN TEMP:  84; 6HR MAX TEMP:  89;

HAYS           SUNNY     90  54  29 S16       29.86S
HILL CITY      SUNNY     89  55  31 S10       29.84F
6HR MIN TEMP:  85; 6HR MAX TEMP:  92;

RUSSELL        SUNNY     87  59  38 SE16      29.85S
6HR MIN TEMP:  84; 6HR MAX TEMP:  89;

$$

KSZ061>065-074>080-084>089-310100-
SOUTHWEST KANSAS

CITY           SKY/WX    TMP DP  RH WIND       PRES   REMARKS
DODGE CITY     SUNNY     87  48  25 SE20      29.90S
6HR MIN TEMP:  87; 6HR MAX TEMP:  92;

ELKHART          N/A     90  54  29 S17         N/A
GARDEN CITY    SUNNY     86  55  34 SE24G32   29.87S
6HR MIN TEMP:  86; 6HR MAX TEMP:  90;

GREAT BEND     SUNNY     90  55  31 S14       29.87S
LIBERAL        MOSUNNY   91  54  27 S20G29    29.89S
PRATT          SUNNY     88  52  29 S10       29.91S
$$

KSZ066>073-081>083-090>101-310100-
SOUTHEAST KANSAS

CITY           SKY/WX    TMP DP  RH WIND       PRES   REMARKS
CHANUTE        CLEAR     92  55  28 E3        29.88R
6HR MIN TEMP:  90; 6HR MAX TEMP:  95;

COFFEYVILLE    CLEAR     90  63  40 W6        29.86S
6HR MIN TEMP:  88; 6HR MAX TEMP:  94;

HUTCHINSON     SUNNY     89  56  32 S9        29.88S
6HR MIN TEMP:  87; 6HR MAX TEMP:  92;

MEDICINE LODGE   N/A     89  58  34 SE9       29.87F
NEWTON         SUNNY     90  52  27 S6        29.92S
PARSONS        CLEAR     91  61  36 SW3       29.88S
6HR MIN TEMP:  87; 6HR MAX TEMP:  95;

WICHITA INTL   MOSUNNY   90  55  30 S8        29.87S
6HR MIN TEMP:  88; 6HR MAX TEMP:  94;

WICHITA JABRA  SUNNY     89  58  34 S8        29.88R
6HR MIN TEMP:  87; 6HR MAX TEMP:  92;

WICHITA MCCONL SUNNY     89  58  34 S8        29.89R
WINFIELD       SUNNY     88  62  41 S7        29.89S
6HR MIN TEMP:  88; 6HR MAX TEMP:  92;

$$

KSZ007>012-019>026-033>040-048>060-102>105-310100-
NORTHEAST KANSAS

CITY           SKY/WX    TMP DP  RH WIND       PRES   REMARKS
CONCORDIA      SUNNY     84  65  52 S6        29.86S
6HR MIN TEMP:  81; 6HR MAX TEMP:  87;

EMPORIA        SUNNY     88  62  41 SE6       29.88R
6HR MIN TEMP:  87; 6HR MAX TEMP:  93;

LAWRENCE       CLEAR     88  68  51 E5        29.87S
6HR MIN TEMP:  87; 6HR MAX TEMP:  95;

MANHATTAN      SUNNY     89  61  38 N3        29.86S
6HR MIN TEMP:  86; 6HR MAX TEMP:  93;

MARYSVILLE     SUNNY     82  66  57 S3        29.86S
OLATHE IND     CLEAR     86  64  47 N5        29.90R
6HR MIN TEMP:  86; 6HR MAX TEMP:  90;

OLATHE EXE     CLEAR     86  65  49 E3        29.89R
6HR MIN TEMP:  84; 6HR MAX TEMP:  90;

SALINA         SUNNY     91  57  31 S8        29.86S
6HR MIN TEMP:  87; 6HR MAX TEMP:  95;

TOPEKA BILLARD CLEAR     88  66  48 E5        29.87R
6HR MIN TEMP:  85; 6HR MAX TEMP:  92;

TOPEKA FORBES  PTCLDY    87  63  44 E7        29.87S
6HR MIN TEMP:  85; 6HR MAX TEMP:  91;

$$



USA.gov is the U.S. government's official web portal to all federal, state and local government web resources and services.